| time (UTC) | temp F | wind direction | speed MPH | gust MPH | rain 1hr in | rain 24hr in | rain mn in | humidity % | barometer mb |
| 20260831092529 | 81 | 179 | 0.0 | 1.0 | 0.00 | 0.00 | 0.00 | 69 | 1015.4 |
| 20260831092112 | 81 | 176 | 1.0 | 1.0 | 0.00 | 0.00 | 0.00 | 69 | 1015.4 |
| 20260831091552 | 81 | 175 | 0.0 | 1.0 | 0.00 | 0.00 | 0.00 | 68 | 1015.4 |
| 20260831091034 | 81 | 175 | 0.0 | 1.0 | 0.00 | 0.00 | 0.00 | 68 | 1015.3 |
| 20260831090533 | 81 | 175 | 0.0 | 2.0 | 0.00 | 0.00 | 0.00 | 67 | 1015.3 |
| 20260831090034 | 82 | 177 | 1.0 | 1.0 | 0.00 | 0.00 | 0.00 | 66 | 1015.3 |
| 20260831085554 | 82 | 179 | 0.0 | 1.0 | 0.00 | 0.00 | 0.00 | 66 | 1015.3 |
| 20260831085120 | 82 | 179 | 1.0 | 2.0 | 0.00 | 0.00 | 0.00 | 65 | 1015.1 |
| 20260831084600 | 82 | 175 | 1.0 | 1.0 | 0.00 | 0.00 | 0.00 | 64 | 1015.2 |
| 20260831084033 | 82 | 174 | 1.0 | 1.0 | 0.00 | 0.00 | 0.00 | 64 | 1015.3 |
| 20260831083533 | 82 | 177 | 1.0 | 1.0 | 0.00 | 0.00 | 0.00 | 64 | 1015.2 |
| 20260831083034 | 82 | 178 | 1.0 | 2.0 | 0.00 | 0.00 | 0.00 | 64 | 1015.3 |
| 20260831082533 | 82 | 180 | 1.0 | 2.0 | 0.00 | 0.00 | 0.00 | 64 | 1015.3 |
| 20260831082034 | 83 | 178 | 1.0 | 1.0 | 0.00 | 0.00 | 0.00 | 63 | 1015.3 |
| 20260831081534 | 83 | 182 | 1.0 | 2.0 | 0.00 | 0.00 | 0.00 | 63 | 1015.4 |
| 20260831081120 | 83 | 174 | 1.0 | 1.0 | 0.00 | 0.00 | 0.00 | 63 | 1015.3 |
| 20260831080600 | 83 | 183 | 1.0 | 2.0 | 0.00 | 0.00 | 0.00 | 62 | 1015.4 |
| 20260831080034 | 83 | 177 | 1.0 | 2.0 | 0.00 | 0.00 | 0.00 | 62 | 1015.3 |
| 20260831075533 | 83 | 175 | 1.0 | 3.0 | 0.00 | 0.00 | 0.00 | 62 | 1015.3 |
| 20260831075033 | 83 | 188 | 1.0 | 2.0 | 0.00 | 0.00 | 0.00 | 62 | 1015.2 |
| 20260831074617 | 83 | 186 | 1.0 | 2.0 | 0.00 | 0.00 | 0.00 | 62 | 1015.2 |
| 20260831074116 | 83 | 181 | 1.0 | 2.0 | 0.00 | 0.00 | 0.00 | 61 | 1015.2 |
| 20260831073614 | 83 | 180 | 1.0 | 2.0 | 0.00 | 0.00 | 0.00 | 61 | 1015.2 |
| 20260831073034 | 83 | 187 | 1.0 | 2.0 | 0.00 | 0.00 | 0.00 | 60 | 1015.1 |
| 20260831072534 | 82 | 176 | 1.0 | 1.0 | 0.00 | 0.00 | 0.00 | 61 | 1015.1 |
| 20260831072025 | 82 | 181 | 1.0 | 1.0 | 0.00 | 0.00 | 0.00 | 61 | 1015.1 |
| 20260831071608 | 81 | 176 | 1.0 | 2.0 | 0.00 | 0.00 | 0.00 | 62 | 1015.1 |
| 20260831071048 | 79 | 178 | 1.0 | 1.0 | 0.00 | 0.00 | 0.00 | 64 | 1015.0 |
| 20260831070533 | 79 | 0.0 | 0.0 | 0.00 | 0.00 | 0.00 | 65 | 1015.0 | |
| 20260831070054 | 79 | 0.0 | 0.0 | 0.00 | 0.00 | 0.00 | 64 | 1015.2 | |
| 20260831065533 | 79 | 174 | 0.0 | 1.0 | 0.00 | 0.00 | 0.00 | 64 | 1015.0 |
| 20260831065033 | 78 | 174 | 0.0 | 1.0 | 0.00 | 0.00 | 0.00 | 65 | 1015.2 |
| 20260831064616 | 78 | 0.0 | 0.0 | 0.00 | 0.00 | 0.00 | 65 | 1015.1 | |
| 20260831064057 | 78 | 0.0 | 0.0 | 0.00 | 0.00 | 0.00 | 63 | 1015.0 | |
| 20260831063533 | 78 | 0.0 | 0.0 | 0.00 | 0.00 | 0.00 | 62 | 1015.1 | |
| 20260831063054 | 79 | 0.0 | 0.0 | 0.00 | 0.00 | 0.00 | 63 | 1015.0 | |
| 20260831062614 | 79 | 0.0 | 0.0 | 0.00 | 0.00 | 0.00 | 63 | 1015.1 | |
| 20260831062033 | 79 | 0.0 | 0.0 | 0.00 | 0.00 | 0.00 | 61 | 1015.1 | |
| 20260831061554 | 80 | 167 | 0.0 | 1.0 | 0.00 | 0.00 | 0.00 | 60 | 1015.0 |
| 20260831061120 | 80 | 0.0 | 0.0 | 0.00 | 0.00 | 0.00 | 59 | 1015.1 | |
| 20260831060600 | 80 | 0.0 | 0.0 | 0.00 | 0.00 | 0.00 | 58 | 1015.1 | |
| 20260831060041 | 81 | 0.0 | 0.0 | 0.00 | 0.00 | 0.00 | 57 | 1015.1 | |
| 20260831055521 | 81 | 168 | 0.0 | 1.0 | 0.00 | 0.00 | 0.00 | 57 | 1015.0 |
| 20260831055104 | 81 | 0.0 | 0.0 | 0.00 | 0.00 | 0.00 | 56 | 1015.0 | |
| 20260831054545 | 81 | 168 | 0.0 | 1.0 | 0.00 | 0.00 | 0.00 | 56 | 1015.0 |
| 20260831054025 | 81 | 168 | 0.0 | 1.0 | 0.00 | 0.00 | 0.00 | 56 | 1015.0 |
| 20260831053608 | 81 | 169 | 0.0 | 1.0 | 0.00 | 0.00 | 0.00 | 56 | 1015.0 |
| 20260831053049 | 82 | 170 | 0.0 | 1.0 | 0.00 | 0.00 | 0.00 | 55 | 1015.1 |
| 20260831052549 | 82 | 0.0 | 0.0 | 0.00 | 0.00 | 0.00 | 54 | 1015.0 | |
| 20260831052112 | 82 | 0.0 | 0.0 | 0.00 | 0.00 | 0.00 | 54 | 1014.9 | |
| 20260831051553 | 82 | 172 | 0.0 | 1.0 | 0.00 | 0.00 | 0.00 | 54 | 1014.8 |
| 20260831051033 | 82 | 173 | 0.0 | 1.0 | 0.00 | 0.00 | 0.00 | 55 | 1014.8 |
| 20260831050616 | 82 | 0.0 | 0.0 | 0.00 | 0.00 | 0.00 | 56 | 1014.9 | |
| 20260831050057 | 82 | 173 | 0.0 | 1.0 | 0.00 | 0.00 | 0.00 | 55 | 1014.9 |
| 20260831045534 | 82 | 0.0 | 0.0 | 0.00 | 0.00 | 0.00 | 55 | 1014.8 | |
| 20260831045121 | 83 | 0.0 | 0.0 | 0.00 | 0.00 | 0.00 | 53 | 1014.8 | |
| 20260831044600 | 83 | 172 | 0.0 | 1.0 | 0.00 | 0.00 | 0.00 | 53 | 1014.8 |
| 20260831044101 | 83 | 0.0 | 0.0 | 0.00 | 0.00 | 0.00 | 53 | 1014.8 | |
| 20260831043521 | 83 | 163 | 0.0 | 1.0 | 0.00 | 0.00 | 0.00 | 54 | 1014.9 |
| 20260831043104 | 83 | 0.0 | 0.0 | 0.00 | 0.00 | 0.00 | 53 | 1014.8 | |
| 20260831042544 | 83 | 0.0 | 0.0 | 0.00 | 0.00 | 0.00 | 52 | 1014.9 | |
| 20260831042025 | 84 | 162 | 0.0 | 1.0 | 0.00 | 0.00 | 0.00 | 51 | 1014.8 |
| 20260831041608 | 83 | 0.0 | 0.0 | 0.00 | 0.00 | 0.00 | 50 | 1014.7 | |
| 20260831041109 | 83 | 161 | 0.0 | 1.0 | 0.00 | 0.00 | 0.00 | 52 | 1014.6 |
| 20260831040549 | 84 | 0.0 | 0.0 | 0.00 | 0.00 | 0.00 | 51 | 1014.6 | |
| 20260831040113 | 85 | 0.0 | 0.0 | 0.00 | 0.00 | 0.00 | 50 | 1014.7 | |
| 20260831035553 | 85 | 171 | 0.0 | 1.0 | 0.00 | 0.00 | 0.00 | 48 | 1014.7 |
| 20260831035033 | 85 | 174 | 0.0 | 1.0 | 0.00 | 0.00 | 0.00 | 48 | 1014.7 |
| 20260831034636 | 85 | 174 | 0.0 | 1.0 | 0.00 | 0.00 | 0.00 | 48 | 1014.7 |
| 20260831034056 | 85 | 174 | 0.0 | 1.0 | 0.00 | 0.00 | 0.00 | 48 | 1014.6 |
| 20260831033534 | 84 | 173 | 0.0 | 1.0 | 0.00 | 0.00 | 0.00 | 50 | 1014.6 |
| 20260831033120 | 84 | 0.0 | 0.0 | 0.00 | 0.00 | 0.00 | 49 | 1014.7 | |
| 20260831032600 | 85 | 0.0 | 0.0 | 0.00 | 0.00 | 0.00 | 49 | 1014.5 | |
| 20260831032041 | 86 | 173 | 0.0 | 1.0 | 0.00 | 0.00 | 0.00 | 48 | 1014.5 |
| 20260831031522 | 86 | 0.0 | 0.0 | 0.00 | 0.00 | 0.00 | 48 | 1014.4 | |
| 20260831031104 | 87 | 172 | 0.0 | 1.0 | 0.00 | 0.00 | 0.00 | 47 | 1014.3 |
| 20260831030544 | 87 | 174 | 1.0 | 1.0 | 0.00 | 0.00 | 0.00 | 45 | 1014.4 |
| 20260831030026 | 87 | 173 | 1.0 | 1.0 | 0.00 | 0.00 | 0.00 | 46 | 1014.3 |
| 20260831025609 | 86 | 164 | 1.0 | 1.0 | 0.00 | 0.00 | 0.00 | 47 | 1014.3 |
| 20260831025048 | 86 | 157 | 0.0 | 1.0 | 0.00 | 0.00 | 0.00 | 46 | 1014.2 |
| 20260831024530 | 86 | 158 | 0.0 | 1.0 | 0.00 | 0.00 | 0.00 | 46 | 1014.1 |
| 20260831024112 | 86 | 158 | 0.0 | 1.0 | 0.00 | 0.00 | 0.00 | 47 | 1014.2 |
| 20260831023552 | 86 | 158 | 0.0 | 1.0 | 0.00 | 0.00 | 0.00 | 47 | 1014.1 |
| 20260831023054 | 86 | 157 | 0.0 | 1.0 | 0.00 | 0.00 | 0.00 | 46 | 1014.0 |
| 20260831022616 | 86 | 157 | 0.0 | 1.0 | 0.00 | 0.00 | 0.00 | 47 | 1014.1 |
| 20260831022056 | 86 | 0.0 | 0.0 | 0.00 | 0.00 | 0.00 | 46 | 1013.9 | |
| 20260831021535 | 86 | 0.0 | 0.0 | 0.00 | 0.00 | 0.00 | 47 | 1013.8 | |
| 20260831021141 | 86 | 0.0 | 0.0 | 0.00 | 0.00 | 0.00 | 46 | 1013.8 | |
| 20260831020600 | 86 | 0.0 | 0.0 | 0.00 | 0.00 | 0.00 | 46 | 1013.7 | |
| 20260831020041 | 86 | 0.0 | 0.0 | 0.00 | 0.00 | 0.00 | 45 | 1013.6 | |
| 20260831015521 | 87 | 0.0 | 0.0 | 0.00 | 0.00 | 0.00 | 45 | 1013.5 | |
| 20260831015105 | 87 | 0.0 | 0.0 | 0.00 | 0.00 | 0.00 | 44 | 1013.6 | |
| 20260831014545 | 87 | 173 | 0.0 | 1.0 | 0.00 | 0.00 | 0.00 | 44 | 1013.3 |
| 20260831014045 | 88 | 173 | 0.0 | 1.0 | 0.00 | 0.00 | 0.00 | 43 | 1013.4 |
| 20260831013608 | 88 | 0.0 | 0.0 | 0.00 | 0.00 | 0.00 | 43 | 1013.3 | |
| 20260831013109 | 89 | 173 | 0.0 | 1.0 | 0.00 | 0.00 | 0.00 | 42 | 1013.4 |
| 20260831012534 | 89 | 173 | 0.0 | 1.0 | 0.00 | 0.00 | 0.00 | 42 | 1013.3 |
| 20260831012034 | 89 | 173 | 0.0 | 1.0 | 0.00 | 0.00 | 0.00 | 41 | 1013.1 |
| 20260831011615 | 89 | 173 | 0.0 | 1.0 | 0.00 | 0.00 | 0.00 | 41 | 1013.1 |
| 20260831011033 | 89 | 172 | 0.0 | 1.0 | 0.00 | 0.00 | 0.00 | 42 | 1013.2 |
| 20260831010534 | 90 | 0.0 | 0.0 | 0.00 | 0.00 | 0.00 | 41 | 1013.1 | |
| 20260831010035 | 90 | 0.0 | 0.0 | 0.00 | 0.00 | 0.00 | 40 | 1013.1 | |
| 20260831005522 | 91 | 0.0 | 0.0 | 0.00 | 0.00 | 0.00 | 40 | 1013.1 | |
| 20260831005104 | 92 | 175 | 0.0 | 1.0 | 0.00 | 0.00 | 0.00 | 38 | 1013.1 |
| 20260831004534 | 94 | 175 | 0.0 | 1.0 | 0.00 | 0.00 | 0.00 | 37 | 1013.0 |
| 20260831004025 | 94 | 175 | 0.0 | 1.0 | 0.00 | 0.00 | 0.00 | 37 | 1013.0 |
| 20260831003609 | 95 | 177 | 0.0 | 1.0 | 0.00 | 0.00 | 0.00 | 37 | 1012.9 |
| 20260831003109 | 95 | 185 | 1.0 | 3.0 | 0.00 | 0.00 | 0.00 | 35 | 1013.0 |
| 20260831002550 | 95 | 180 | 1.0 | 2.0 | 0.00 | 0.00 | 0.00 | 36 | 1013.0 |
| 20260831002112 | 96 | 183 | 1.0 | 2.0 | 0.00 | 0.00 | 0.00 | 35 | 1013.0 |
| 20260831001553 | 96 | 179 | 1.0 | 3.0 | 0.00 | 0.00 | 0.00 | 35 | 1013.0 |
| 20260831001033 | 96 | 174 | 1.0 | 1.0 | 0.00 | 0.00 | 0.00 | 34 | 1013.0 |
| 20260831000616 | 96 | 173 | 1.0 | 1.0 | 0.00 | 0.00 | 0.00 | 34 | 1013.0 |
| 20260831000117 | 97 | 174 | 1.0 | 2.0 | 0.00 | 0.00 | 0.00 | 34 | 1013.1 |
| 20260830235534 | 97 | 188 | 1.0 | 3.0 | 0.00 | 0.00 | 0.00 | 32 | 1013.1 |
| 20260830235141 | 98 | 199 | 1.0 | 2.0 | 0.00 | 0.00 | 0.00 | 32 | 1013.1 |
| 20260830234621 | 99 | 186 | 1.0 | 3.0 | 0.00 | 0.00 | 0.00 | 31 | 1013.1 |
| 20260830234034 | 99 | 171 | 1.0 | 1.0 | 0.00 | 0.00 | 0.00 | 31 | 1013.0 |
| 20260830233521 | 99 | 185 | 1.0 | 2.0 | 0.00 | 0.00 | 0.00 | 31 | 1013.1 |
| 20260830233105 | 100 | 198 | 1.0 | 2.0 | 0.00 | 0.00 | 0.00 | 31 | 1013.1 |
| 20260830232545 | 100 | 180 | 1.0 | 2.0 | 0.00 | 0.00 | 0.00 | 30 | 1013.0 |
| 20260830232025 | 101 | 180 | 1.0 | 2.0 | 0.00 | 0.00 | 0.00 | 30 | 1012.9 |
| 20260830231609 | 100 | 181 | 1.0 | 2.0 | 0.00 | 0.00 | 0.00 | 31 | 1013.1 |
| 20260830231049 | 101 | 185 | 2.0 | 3.0 | 0.00 | 0.00 | 0.00 | 30 | 1013.1 |
| 20260830230530 | 101 | 181 | 2.0 | 3.0 | 0.00 | 0.00 | 0.00 | 30 | 1013.1 |
| 20260830230113 | 101 | 157 | 1.0 | 2.0 | 0.00 | 0.00 | 0.00 | 30 | 1013.1 |
| 20260830225613 | 101 | 192 | 2.0 | 2.0 | 0.00 | 0.00 | 0.00 | 30 | 1013.2 |
| 20260830225033 | 101 | 198 | 2.0 | 5.0 | 0.00 | 0.00 | 0.00 | 31 | 1013.3 |
| 20260830224530 | 101 | 184 | 2.0 | 3.0 | 0.00 | 0.00 | 0.00 | 31 | 1013.2 |
| 20260830224113 | 101 | 177 | 2.0 | 3.0 | 0.00 | 0.00 | 0.00 | 30 | 1013.1 |
| 20260830223553 | 102 | 192 | 2.0 | 6.0 | 0.00 | 0.00 | 0.00 | 30 | 1013.2 |
| 20260830223034 | 102 | 185 | 2.0 | 3.0 | 0.00 | 0.00 | 0.00 | 29 | 1013.3 |
| 20260830222529 | 102 | 214 | 2.0 | 5.0 | 0.00 | 0.00 | 0.00 | 30 | 1013.3 |
| 20260830222113 | 102 | 168 | 2.0 | 5.0 | 0.00 | 0.00 | 0.00 | 31 | 1013.1 |
| 20260830221553 | 103 | 146 | 1.0 | 2.0 | 0.00 | 0.00 | 0.00 | 30 | 1013.3 |
| 20260830221033 | 103 | 194 | 1.0 | 3.0 | 0.00 | 0.00 | 0.00 | 31 | 1013.3 |
| 20260830220533 | 102 | 191 | 1.0 | 2.0 | 0.00 | 0.00 | 0.00 | 31 | 1013.3 |
| 20260830220035 | 102 | 195 | 2.0 | 3.0 | 0.00 | 0.00 | 0.00 | 31 | 1013.3 |
| 20260830215534 | 102 | 214 | 2.0 | 3.0 | 0.00 | 0.00 | 0.00 | 30 | 1013.2 |
| 20260830215034 | 103 | 166 | 2.0 | 3.0 | 0.00 | 0.00 | 0.00 | 30 | 1013.3 |
| 20260830214535 | 103 | 196 | 2.0 | 2.0 | 0.00 | 0.00 | 0.00 | 30 | 1013.4 |
| 20260830214034 | 102 | 205 | 2.0 | 5.0 | 0.00 | 0.00 | 0.00 | 30 | 1013.4 |
| 20260830213534 | 102 | 208 | 2.0 | 2.0 | 0.00 | 0.00 | 0.00 | 30 | 1013.5 |
| 20260830213121 | 102 | 222 | 2.0 | 3.0 | 0.00 | 0.00 | 0.00 | 31 | 1013.5 |
| 20260830212601 | 102 | 188 | 2.0 | 5.0 | 0.00 | 0.00 | 0.00 | 31 | 1013.5 |
| 20260830212041 | 103 | 196 | 2.0 | 5.0 | 0.00 | 0.00 | 0.00 | 31 | 1013.5 |
| 20260830211555 | 103 | 184 | 2.0 | 5.0 | 0.00 | 0.00 | 0.00 | 30 | 1013.6 |
| 20260830211033 | 103 | 197 | 2.0 | 5.0 | 0.00 | 0.00 | 0.00 | 30 | 1013.7 |
| 20260830210534 | 103 | 191 | 2.0 | 5.0 | 0.00 | 0.00 | 0.00 | 30 | 1013.8 |
| 20260830210026 | 103 | 186 | 1.0 | 2.0 | 0.00 | 0.00 | 0.00 | 30 | 1013.8 |
| 20260830205609 | 102 | 174 | 2.0 | 3.0 | 0.00 | 0.00 | 0.00 | 31 | 1013.9 |
| 20260830205049 | 102 | 182 | 2.0 | 3.0 | 0.00 | 0.00 | 0.00 | 31 | 1014.0 |
| 20260830204535 | 102 | 180 | 2.0 | 3.0 | 0.00 | 0.00 | 0.00 | 32 | 1014.0 |
| 20260830204034 | 102 | 184 | 2.0 | 3.0 | 0.00 | 0.00 | 0.00 | 32 | 1014.1 |
| 20260830203534 | 102 | 197 | 2.0 | 3.0 | 0.00 | 0.00 | 0.00 | 31 | 1014.1 |
| 20260830203034 | 102 | 162 | 2.0 | 3.0 | 0.00 | 0.00 | 0.00 | 32 | 1014.2 |
| 20260830202617 | 102 | 205 | 2.0 | 5.0 | 0.00 | 0.00 | 0.00 | 32 | 1014.3 |
| 20260830202057 | 102 | 185 | 2.0 | 5.0 | 0.00 | 0.00 | 0.00 | 31 | 1014.3 |
| 20260830201554 | 102 | 198 | 2.0 | 3.0 | 0.00 | 0.00 | 0.00 | 31 | 1014.4 |
| 20260830201054 | 102 | 204 | 2.0 | 5.0 | 0.00 | 0.00 | 0.00 | 31 | 1014.5 |
| 20260830200533 | 102 | 178 | 3.0 | 5.0 | 0.00 | 0.00 | 0.00 | 31 | 1014.5 |
| 20260830200054 | 102 | 186 | 1.0 | 3.0 | 0.00 | 0.00 | 0.00 | 33 | 1014.7 |
| 20260830195534 | 102 | 164 | 1.0 | 3.0 | 0.00 | 0.00 | 0.00 | 31 | 1014.8 |
| 20260830195033 | 102 | 238 | 2.0 | 5.0 | 0.00 | 0.00 | 0.00 | 32 | 1014.8 |
| 20260830194534 | 102 | 193 | 2.0 | 3.0 | 0.00 | 0.00 | 0.00 | 33 | 1014.8 |
| 20260830194034 | 102 | 188 | 1.0 | 3.0 | 0.00 | 0.00 | 0.00 | 33 | 1014.9 |
| 20260830193534 | 102 | 190 | 2.0 | 3.0 | 0.00 | 0.00 | 0.00 | 32 | 1014.8 |
| 20260830193034 | 101 | 194 | 2.0 | 3.0 | 0.00 | 0.00 | 0.00 | 33 | 1015.0 |
| 20260830192617 | 101 | 205 | 2.0 | 3.0 | 0.00 | 0.00 | 0.00 | 33 | 1015.0 |
| 20260830192057 | 101 | 185 | 2.0 | 5.0 | 0.00 | 0.00 | 0.00 | 33 | 1015.1 |
| 20260830191535 | 101 | 205 | 2.0 | 3.0 | 0.00 | 0.00 | 0.00 | 34 | 1015.1 |
| 20260830191033 | 101 | 178 | 3.0 | 7.0 | 0.00 | 0.00 | 0.00 | 34 | 1015.2 |
| 20260830190534 | 101 | 206 | 2.0 | 5.0 | 0.00 | 0.00 | 0.00 | 34 | 1015.3 |
| 20260830190035 | 101 | 192 | 2.0 | 5.0 | 0.00 | 0.00 | 0.00 | 35 | 1015.3 |
| 20260830185521 | 101 | 195 | 2.0 | 3.0 | 0.00 | 0.00 | 0.00 | 35 | 1015.4 |
| 20260830185105 | 100 | 184 | 2.0 | 5.0 | 0.00 | 0.00 | 0.00 | 35 | 1015.5 |
| 20260830184545 | 101 | 212 | 2.0 | 5.0 | 0.00 | 0.00 | 0.00 | 36 | 1015.5 |
| 20260830184034 | 101 | 201 | 3.0 | 5.0 | 0.00 | 0.00 | 0.00 | 36 | 1015.5 |
| 20260830183534 | 100 | 227 | 2.0 | 3.0 | 0.00 | 0.00 | 0.00 | 36 | 1015.6 |
| 20260830183053 | 100 | 162 | 2.0 | 5.0 | 0.00 | 0.00 | 0.00 | 38 | 1015.7 |
| 20260830182530 | 100 | 188 | 2.0 | 6.0 | 0.00 | 0.00 | 0.00 | 38 | 1015.8 |
| 20260830182113 | 100 | 148 | 2.0 | 5.0 | 0.00 | 0.00 | 0.00 | 38 | 1015.9 |
| 20260830181553 | 100 | 183 | 2.0 | 5.0 | 0.00 | 0.00 | 0.00 | 39 | 1015.9 |
| 20260830181033 | 100 | 183 | 2.0 | 3.0 | 0.00 | 0.00 | 0.00 | 38 | 1016.1 |
| 20260830180534 | 100 | 174 | 3.0 | 5.0 | 0.00 | 0.00 | 0.00 | 38 | 1016.1 |
| 20260830180034 | 99 | 171 | 2.0 | 5.0 | 0.00 | 0.00 | 0.00 | 39 | 1016.2 |
| 20260830175554 | 100 | 189 | 2.0 | 3.0 | 0.00 | 0.00 | 0.00 | 38 | 1016.3 |
| 20260830175053 | 99 | 192 | 2.0 | 3.0 | 0.00 | 0.00 | 0.00 | 39 | 1016.4 |
| 20260830174533 | 98 | 191 | 2.0 | 3.0 | 0.00 | 0.00 | 0.00 | 40 | 1016.4 |
| 20260830174033 | 98 | 174 | 2.0 | 5.0 | 0.00 | 0.00 | 0.00 | 41 | 1016.5 |
| 20260830173534 | 98 | 207 | 2.0 | 6.0 | 0.00 | 0.00 | 0.00 | 41 | 1016.6 |
| 20260830173034 | 99 | 196 | 2.0 | 6.0 | 0.00 | 0.00 | 0.00 | 41 | 1016.6 |
| 20260830172529 | 98 | 198 | 2.0 | 5.0 | 0.00 | 0.00 | 0.00 | 41 | 1016.6 |
| 20260830172133 | 98 | 210 | 2.0 | 5.0 | 0.00 | 0.00 | 0.00 | 42 | 1016.7 |
| 20260830171553 | 98 | 182 | 2.0 | 3.0 | 0.00 | 0.00 | 0.00 | 42 | 1016.8 |
| 20260830171034 | 97 | 186 | 2.0 | 5.0 | 0.00 | 0.00 | 0.00 | 44 | 1016.9 |
| 20260830170534 | 97 | 190 | 2.0 | 5.0 | 0.00 | 0.00 | 0.00 | 44 | 1017.0 |
| 20260830170034 | 97 | 213 | 2.0 | 5.0 | 0.00 | 0.00 | 0.00 | 45 | 1016.9 |
| 20260830165534 | 97 | 187 | 1.0 | 2.0 | 0.00 | 0.00 | 0.00 | 45 | 1017.1 |
| 20260830165141 | 97 | 209 | 2.0 | 3.0 | 0.00 | 0.00 | 0.00 | 46 | 1017.1 |
| 20260830164601 | 97 | 165 | 2.0 | 5.0 | 0.00 | 0.00 | 0.00 | 45 | 1017.1 |
| 20260830164034 | 96 | 193 | 2.0 | 3.0 | 0.00 | 0.00 | 0.00 | 46 | 1017.2 |
| 20260830163533 | 96 | 178 | 1.0 | 2.0 | 0.00 | 0.00 | 0.00 | 47 | 1017.3 |
| 20260830163054 | 96 | 185 | 2.0 | 3.0 | 0.00 | 0.00 | 0.00 | 47 | 1017.2 |
| 20260830162534 | 95 | 185 | 2.0 | 3.0 | 0.00 | 0.00 | 0.00 | 47 | 1017.3 |
| 20260830162026 | 94 | 188 | 2.0 | 2.0 | 0.00 | 0.00 | 0.00 | 49 | 1017.3 |
| 20260830161609 | 95 | 211 | 3.0 | 3.0 | 0.00 | 0.00 | 0.00 | 49 | 1017.3 |
| 20260830161049 | 94 | 171 | 2.0 | 3.0 | 0.00 | 0.00 | 0.00 | 48 | 1017.3 |
| 20260830160533 | 94 | 210 | 1.0 | 3.0 | 0.00 | 0.00 | 0.00 | 49 | 1017.3 |
| 20260830160034 | 94 | 191 | 2.0 | 3.0 | 0.00 | 0.00 | 0.00 | 50 | 1017.3 |
| 20260830155534 | 94 | 208 | 2.0 | 5.0 | 0.00 | 0.00 | 0.00 | 51 | 1017.3 |
| 20260830155121 | 93 | 170 | 1.0 | 2.0 | 0.00 | 0.00 | 0.00 | 53 | 1017.3 |
| 20260830154601 | 93 | 177 | 1.0 | 2.0 | 0.00 | 0.00 | 0.00 | 52 | 1017.3 |
| 20260830154041 | 93 | 173 | 1.0 | 2.0 | 0.00 | 0.00 | 0.00 | 53 | 1017.3 |
| 20260830153534 | 93 | 184 | 1.0 | 2.0 | 0.00 | 0.00 | 0.00 | 53 | 1017.3 |
| 20260830153034 | 92 | 185 | 1.0 | 3.0 | 0.00 | 0.00 | 0.00 | 53 | 1017.2 |
| 20260830152534 | 92 | 189 | 2.0 | 2.0 | 0.00 | 0.00 | 0.00 | 54 | 1017.3 |
| 20260830152026 | 91 | 181 | 1.0 | 2.0 | 0.00 | 0.00 | 0.00 | 54 | 1017.3 |
| 20260830151609 | 91 | 163 | 1.0 | 2.0 | 0.00 | 0.00 | 0.00 | 55 | 1017.3 |
| 20260830151049 | 91 | 193 | 1.0 | 6.0 | 0.00 | 0.00 | 0.00 | 56 | 1017.4 |
| 20260830150534 | 90 | 179 | 1.0 | 2.0 | 0.00 | 0.00 | 0.00 | 57 | 1017.4 |
| 20260830150055 | 90 | 178 | 2.0 | 3.0 | 0.00 | 0.00 | 0.00 | 56 | 1017.4 |
| 20260830145534 | 89 | 182 | 1.0 | 2.0 | 0.00 | 0.00 | 0.00 | 57 | 1017.3 |
| 20260830145034 | 89 | 171 | 1.0 | 2.0 | 0.00 | 0.00 | 0.00 | 57 | 1017.3 |
| 20260830144617 | 89 | 165 | 1.0 | 2.0 | 0.00 | 0.00 | 0.00 | 59 | 1017.3 |
| 20260830144057 | 88 | 181 | 1.0 | 2.0 | 0.00 | 0.00 | 0.00 | 58 | 1017.2 |
| 20260830143534 | 89 | 174 | 1.0 | 2.0 | 0.00 | 0.00 | 0.00 | 59 | 1017.3 |
| 20260830143033 | 88 | 176 | 0.0 | 1.0 | 0.00 | 0.00 | 0.00 | 60 | 1017.4 |
| 20260830142534 | 87 | 175 | 0.0 | 1.0 | 0.00 | 0.00 | 0.00 | 61 | 1017.3 |
| 20260830142033 | 87 | 173 | 1.0 | 1.0 | 0.00 | 0.00 | 0.00 | 62 | 1017.3 |
| 20260830141522 | 87 | 0.0 | 0.0 | 0.00 | 0.00 | 0.00 | 63 | 1017.4 | |
| 20260830141105 | 86 | 177 | 0.0 | 1.0 | 0.00 | 0.00 | 0.00 | 64 | 1017.4 |
| 20260830140554 | 86 | 179 | 1.0 | 1.0 | 0.00 | 0.00 | 0.00 | 65 | 1017.4 |
| 20260830140034 | 85 | 166 | 0.0 | 1.0 | 0.00 | 0.00 | 0.00 | 65 | 1017.4 |
| 20260830135554 | 85 | 165 | 1.0 | 2.0 | 0.00 | 0.00 | 0.00 | 65 | 1017.4 |
| 20260830135034 | 85 | 176 | 0.0 | 1.0 | 0.00 | 0.00 | 0.00 | 66 | 1017.4 |
| 20260830134617 | 85 | 170 | 0.0 | 1.0 | 0.00 | 0.00 | 0.00 | 67 | 1017.4 |
| 20260830134137 | 84 | 173 | 0.0 | 1.0 | 0.00 | 0.00 | 0.00 | 67 | 1017.3 |
| 20260830133537 | 84 | 161 | 0.0 | 2.0 | 0.00 | 0.00 | 0.00 | 69 | 1017.3 |
| 20260830133035 | 83 | 172 | 0.0 | 1.0 | 0.00 | 0.00 | 0.00 | 70 | 1017.2 |
| 20260830132554 | 82 | 174 | 0.0 | 1.0 | 0.00 | 0.00 | 0.00 | 72 | 1017.3 |
| 20260830132054 | 81 | 0.0 | 0.0 | 0.00 | 0.00 | 0.00 | 74 | 1017.2 | |
| 20260830131522 | 79 | 0.0 | 0.0 | 0.00 | 0.00 | 0.00 | 78 | 1017.1 | |
| 20260830131105 | 78 | 0.0 | 0.0 | 0.00 | 0.00 | 0.00 | 80 | 1017.0 | |
| 20260830130545 | 77 | 0.0 | 0.0 | 0.00 | 0.00 | 0.00 | 81 | 1017.0 | |
| 20260830130034 | 77 | 0.0 | 0.0 | 0.00 | 0.00 | 0.00 | 81 | 1016.9 | |
| 20260830125533 | 77 | 0.0 | 0.0 | 0.00 | 0.00 | 0.00 | 81 | 1016.8 | |
| 20260830125034 | 77 | 0.0 | 0.0 | 0.00 | 0.00 | 0.00 | 80 | 1016.9 | |
| 20260830124531 | 77 | 0.0 | 0.0 | 0.00 | 0.00 | 0.00 | 80 | 1016.7 | |
| 20260830124113 | 77 | 0.0 | 0.0 | 0.00 | 0.00 | 0.00 | 80 | 1016.7 | |
| 20260830123613 | 76 | 0.0 | 0.0 | 0.00 | 0.00 | 0.00 | 80 | 1016.7 | |
| 20260830123055 | 76 | 0.0 | 0.0 | 0.00 | 0.00 | 0.00 | 80 | 1016.5 | |
| 20260830122533 | 76 | 0.0 | 0.0 | 0.00 | 0.00 | 0.00 | 80 | 1016.5 | |
| 20260830122034 | 77 | 174 | 0.0 | 1.0 | 0.00 | 0.00 | 0.00 | 80 | 1016.3 |
| 20260830121534 | 77 | 0.0 | 0.0 | 0.00 | 0.00 | 0.00 | 79 | 1016.4 | |
| 20260830121018 | 77 | 174 | 0.0 | 1.0 | 0.00 | 0.00 | 0.00 | 79 | 1016.3 |
| 20260830120621 | 77 | 175 | 1.0 | 1.0 | 0.00 | 0.00 | 0.00 | 78 | 1016.3 |
| 20260830120035 | 77 | 175 | 1.0 | 1.0 | 0.00 | 0.00 | 0.00 | 79 | 1016.2 |
| 20260830115534 | 76 | 0.0 | 0.0 | 0.00 | 0.00 | 0.00 | 79 | 1016.1 | |
| 20260830115034 | 77 | 177 | 0.0 | 1.0 | 0.00 | 0.00 | 0.00 | 79 | 1016.0 |
| 20260830114531 | 77 | 177 | 0.0 | 1.0 | 0.00 | 0.00 | 0.00 | 79 | 1016.0 |
| 20260830114113 | 77 | 0.0 | 0.0 | 0.00 | 0.00 | 0.00 | 79 | 1015.9 | |
| 20260830113553 | 77 | 0.0 | 0.0 | 0.00 | 0.00 | 0.00 | 78 | 1015.9 | |
| 20260830113035 | 77 | 0.0 | 0.0 | 0.00 | 0.00 | 0.00 | 78 | 1015.9 | |
| 20260830112533 | 76 | 0.0 | 0.0 | 0.00 | 0.00 | 0.00 | 78 | 1015.9 | |
| 20260830112033 | 76 | 0.0 | 0.0 | 0.00 | 0.00 | 0.00 | 79 | 1015.9 | |
| 20260830111615 | 76 | 0.0 | 0.0 | 0.00 | 0.00 | 0.00 | 79 | 1015.8 | |
| 20260830111034 | 76 | 0.0 | 0.0 | 0.00 | 0.00 | 0.00 | 78 | 1015.7 | |
| 20260830110534 | 77 | 0.0 | 0.0 | 0.00 | 0.00 | 0.00 | 77 | 1015.8 | |
| 20260830110034 | 77 | 0.0 | 0.0 | 0.00 | 0.00 | 0.00 | 77 | 1015.7 | |
| 20260830105534 | 77 | 0.0 | 0.0 | 0.00 | 0.00 | 0.00 | 77 | 1015.7 | |
| 20260830105034 | 77 | 0.0 | 0.0 | 0.00 | 0.00 | 0.00 | 77 | 1015.6 | |
| 20260830104534 | 77 | 0.0 | 0.0 | 0.00 | 0.00 | 0.00 | 76 | 1015.6 | |
| 20260830104026 | 77 | 0.0 | 0.0 | 0.00 | 0.00 | 0.00 | 76 | 1015.5 | |
| 20260830103609 | 77 | 0.0 | 0.0 | 0.00 | 0.00 | 0.00 | 76 | 1015.5 | |
| 20260830103050 | 77 | 0.0 | 0.0 | 0.00 | 0.00 | 0.00 | 76 | 1015.4 | |
| 20260830102533 | 77 | 0.0 | 0.0 | 0.00 | 0.00 | 0.00 | 75 | 1015.5 | |
| 20260830102033 | 77 | 0.0 | 0.0 | 0.00 | 0.00 | 0.00 | 75 | 1015.5 | |
| 20260830101535 | 77 | 0.0 | 0.0 | 0.00 | 0.00 | 0.00 | 74 | 1015.4 | |
| 20260830101033 | 77 | 0.0 | 0.0 | 0.00 | 0.00 | 0.00 | 74 | 1015.4 | |
| 20260830100637 | 77 | 0.0 | 0.0 | 0.00 | 0.00 | 0.00 | 74 | 1015.3 | |
| 20260830100057 | 77 | 0.0 | 0.0 | 0.00 | 0.00 | 0.00 | 75 | 1015.4 | |
| 20260830095533 | 78 | 0.0 | 0.0 | 0.00 | 0.00 | 0.00 | 74 | 1015.4 | |
| 20260830095033 | 78 | 0.0 | 0.0 | 0.00 | 0.00 | 0.00 | 73 | 1015.4 | |
| 20260830094534 | 78 | 0.0 | 0.0 | 0.00 | 0.00 | 0.00 | 73 | 1015.5 | |
| 20260830094026 | 78 | 0.0 | 0.0 | 0.00 | 0.00 | 0.00 | 73 | 1015.4 | |
| 20260830093609 | 79 | 0.0 | 0.0 | 0.00 | 0.00 | 0.00 | 72 | 1015.4 | |
| 20260830093050 | 78 | 0.0 | 0.0 | 0.00 | 0.00 | 0.00 | 72 | 1015.4 |